TimeEST,TemperatureF,Dew PointF,Humidity,Sea Level PressureIn,VisibilityMPH,Wind Direction,Wind SpeedMPH,Gust SpeedMPH,PrecipitationIn,Events,Conditions,WindDirDegrees,DateUTC
12:15 AM,30.2,28.4,93,29.74,10.0,WNW,17.3,31.1,N/A,,Overcast,300,2014-01-06 05:15:00
12:35 AM,28.4,26.6,93,29.77,10.0,NW,23.0,31.1,N/A,,Overcast,320,2014-01-06 05:35:00
12:55 AM,28.4,26.6,93,29.79,10.0,NW,16.1,33.4,N/A,,Overcast,310,2014-01-06 05:55:00
1:15 AM,26.6,24.8,93,29.81,10.0,NW,15.0,32.2,N/A,,Overcast,320,2014-01-06 06:15:00
1:35 AM,26.6,26.6,100,29.83,10.0,NW,16.1,27.6,N/A,,Overcast,310,2014-01-06 06:35:00
1:55 AM,26.6,23.0,86,29.85,10.0,NW,13.8,24.2,N/A,,Overcast,310,2014-01-06 06:55:00
2:15 AM,24.8,21.2,86,29.88,10.0,WNW,19.6,26.5,N/A,Snow,Light Snow,300,2014-01-06 07:15:00
2:35 AM,23.0,21.2,93,29.91,10.0,WNW,18.4,25.3,N/A,,Overcast,300,2014-01-06 07:35:00
2:55 AM,23.0,19.4,86,29.93,10.0,NW,17.3,28.8,N/A,Snow,Light Snow,320,2014-01-06 07:55:00
3:15 AM,21.2,17.6,86,29.95,10.0,NW,15.0,27.6,N/A,Snow,Light Snow,320,2014-01-06 08:15:00
3:35 AM,19.4,15.8,86,29.97,7.0,WNW,16.1,28.8,N/A,Snow,Light Snow,300,2014-01-06 08:35:00
3:55 AM,19.4,15.8,86,29.98,7.0,WNW,17.3,26.5,N/A,Snow,Light Snow,300,2014-01-06 08:55:00
4:15 AM,19.4,15.8,86,29.99,5.0,WNW,20.7,29.9,N/A,Snow,Light Snow,300,2014-01-06 09:15:00
4:35 AM,17.6,14.0,86,30.00,7.0,WNW,16.1,24.2,N/A,Snow,Light Snow,290,2014-01-06 09:35:00
4:55 AM,17.6,14.0,86,30.01,5.0,WNW,17.3,24.2,N/A,Snow,Light Snow,300,2014-01-06 09:55:00
5:15 AM,17.6,14.0,86,30.02,2.5,NW,11.5,23.0,N/A,Snow,Light Snow,310,2014-01-06 10:15:00
5:35 AM,14.0,10.4,86,30.03,7.0,NW,11.5,24.2,N/A,Snow,Light Snow,310,2014-01-06 10:35:00
5:55 AM,14.0,10.4,86,30.04,5.0,WNW,15.0,21.9,N/A,Snow,Light Snow,290,2014-01-06 10:55:00
6:15 AM,12.2,8.6,85,30.06,7.0,NW,20.7,27.6,N/A,Snow,Light Snow,310,2014-01-06 11:15:00
6:35 AM,12.2,8.6,85,30.07,7.0,WNW,18.4,25.3,N/A,Snow,Light Snow,300,2014-01-06 11:35:00
6:55 AM,10.4,5.0,79,30.09,10.0,WNW,16.1,27.6,N/A,,Overcast,300,2014-01-06 11:55:00
7:15 AM,10.4,5.0,79,30.10,10.0,WNW,17.3,27.6,N/A,,Overcast,300,2014-01-06 12:15:00
7:35 AM,10.4,3.2,73,30.11,10.0,NW,17.3,26.5,N/A,,Overcast,320,2014-01-06 12:35:00
7:55 AM,8.6,3.2,79,30.12,10.0,WNW,17.3,27.6,N/A,,Overcast,290,2014-01-06 12:55:00
8:15 AM,6.8,-0.4,72,30.14,10.0,WNW,17.3,26.5,N/A,,Overcast,290,2014-01-06 13:15:00
8:35 AM,5.0,-0.4,78,30.15,10.0,NW,15.0,27.6,N/A,,Overcast,310,2014-01-06 13:35:00
8:55 AM,5.0,-0.4,78,30.17,10.0,NW,16.1,24.2,N/A,,Overcast,320,2014-01-06 13:55:00
9:15 AM,5.0,-0.4,78,30.17,7.0,NW,15.0,25.3,N/A,,Overcast,310,2014-01-06 14:15:00
9:35 AM,5.0,-0.4,78,30.19,2.5,WNW,18.4,27.6,N/A,,Haze,300,2014-01-06 14:35:00
9:55 AM,3.2,-5.8,66,30.20,10.0,NW,15.0,28.8,N/A,,Scattered Clouds,320,2014-01-06 14:55:00
10:15 AM,3.2,-4.0,72,30.21,10.0,NW,15.0,23.0,N/A,,Mostly Cloudy,320,2014-01-06 15:15:00
10:35 AM,3.2,-4.0,72,30.21,10.0,WNW,18.4,23.0,N/A,,Mostly Cloudy,300,2014-01-06 15:35:00
10:55 AM,5.0,-4.0,66,30.22,10.0,WNW,18.4,25.3,N/A,,Overcast,290,2014-01-06 15:55:00
11:15 AM,5.0,-4.0,66,30.21,10.0,WNW,13.8,20.7,N/A,,Overcast,290,2014-01-06 16:15:00
11:35 AM,5.0,-4.0,66,30.21,5.0,WNW,15.0,24.2,N/A,,Haze,290,2014-01-06 16:35:00
11:55 AM,5.0,-2.2,72,30.20,2.5,WNW,13.8,23.0,N/A,,Haze,290,2014-01-06 16:55:00
12:15 PM,5.0,-4.0,66,30.20,10.0,WNW,11.5,19.6,N/A,,Overcast,300,2014-01-06 17:15:00
12:35 PM,3.2,-4.0,72,30.22,3.0,NW,16.1,26.5,N/A,,Haze,310,2014-01-06 17:35:00
12:55 PM,5.0,-5.8,61,30.21,10.0,NW,16.1,26.5,N/A,,Overcast,320,2014-01-06 17:55:00
1:15 PM,3.2,-5.8,66,30.21,7.0,WNW,16.1,24.2,N/A,,Overcast,300,2014-01-06 18:15:00
1:35 PM,3.2,-4.0,72,30.21,4.0,NW,18.4,21.9,N/A,,Haze,320,2014-01-06 18:35:00
1:55 PM,3.2,-4.0,72,30.22,5.0,WNW,16.1,23.0,N/A,,Haze,300,2014-01-06 18:55:00
2:15 PM,5.0,-5.8,61,30.22,10.0,West,13.8,27.6,N/A,,Overcast,280,2014-01-06 19:15:00
2:35 PM,3.2,-7.6,61,30.23,7.0,WNW,12.7,23.0,N/A,,Overcast,300,2014-01-06 19:35:00
2:55 PM,3.2,-7.6,61,30.23,10.0,WNW,17.3,24.2,N/A,,Overcast,290,2014-01-06 19:55:00
3:15 PM,3.2,-5.8,66,30.24,7.0,WNW,12.7,18.4,N/A,,Overcast,290,2014-01-06 20:15:00
3:35 PM,3.2,-4.0,72,30.25,3.0,WNW,8.1,20.7,N/A,,Haze,300,2014-01-06 20:35:00
3:55 PM,3.2,-4.0,72,30.26,10.0,NW,13.8,19.6,N/A,,Overcast,310,2014-01-06 20:55:00
4:15 PM,1.4,-5.8,72,30.27,10.0,NW,10.4,20.7,N/A,,Overcast,310,2014-01-06 21:15:00
4:35 PM,3.2,-5.8,66,30.27,10.0,WNW,13.8,20.7,N/A,,Overcast,300,2014-01-06 21:35:00
4:55 PM,1.4,-4.0,78,30.27,2.5,WNW,11.5,17.3,N/A,Snow,Light Snow,300,2014-01-06 21:55:00
5:15 PM,1.4,-7.6,66,30.28,10.0,WNW,17.3,25.3,N/A,,Overcast,290,2014-01-06 22:15:00
5:35 PM,1.4,-7.6,66,30.29,10.0,WNW,12.7,21.9,N/A,,Overcast,290,2014-01-06 22:35:00
5:55 PM,1.4,-5.8,72,30.30,4.0,West,9.2,16.1,N/A,Snow,Light Snow,280,2014-01-06 22:55:00
6:15 PM,1.4,-5.8,72,30.30,10.0,WNW,11.5,19.6,N/A,,Overcast,290,2014-01-06 23:15:00
6:35 PM,1.4,-7.6,66,30.31,10.0,WNW,13.8,21.9,N/A,,Mostly Cloudy,290,2014-01-06 23:35:00
6:55 PM,1.4,-7.6,66,30.32,10.0,WNW,11.5,21.9,N/A,,Scattered Clouds,290,2014-01-06 23:55:00
7:15 PM,1.4,-5.8,72,30.32,4.0,WNW,8.1,19.6,N/A,,Haze,290,2014-01-07 00:15:00
7:35 PM,1.4,-4.0,78,30.34,3.0,WNW,10.4,21.9,N/A,Snow,Light Snow,290,2014-01-07 00:35:00
7:55 PM,-0.4,-9.4,66,30.35,10.0,WNW,17.3,24.2,N/A,,Mostly Cloudy,300,2014-01-07 00:55:00
8:15 PM,-0.4,-11.2,60,30.36,10.0,WNW,12.7,21.9,N/A,,Clear,300,2014-01-07 01:15:00
8:35 PM,-0.4,-9.4,66,30.36,10.0,WNW,10.4,23.0,N/A,,Clear,290,2014-01-07 01:35:00
8:55 PM,-0.4,-9.4,66,30.36,10.0,WNW,11.5,18.4,N/A,,Scattered Clouds,290,2014-01-07 01:55:00
9:15 PM,-0.4,-9.4,66,30.37,10.0,WNW,13.8,20.7,N/A,,Clear,290,2014-01-07 02:15:00
9:35 PM,-0.4,-11.2,60,30.38,10.0,WNW,17.3,25.3,N/A,,Clear,300,2014-01-07 02:35:00
9:55 PM,-0.4,-9.4,66,30.38,10.0,WNW,16.1,23.0,N/A,,Scattered Clouds,290,2014-01-07 02:55:00
10:15 PM,-0.4,-9.4,66,30.39,10.0,WNW,8.1,17.3,N/A,,Scattered Clouds,300,2014-01-07 03:15:00
10:35 PM,-2.2,-9.4,71,30.39,10.0,WNW,6.9,17.3,N/A,,Scattered Clouds,290,2014-01-07 03:35:00
10:55 PM,-0.4,-7.6,72,30.39,3.0,NW,6.9,-,N/A,Snow,Light Snow,310,2014-01-07 03:55:00
11:15 PM,-2.2,-9.4,71,30.39,10.0,WNW,10.4,16.1,N/A,,Overcast,300,2014-01-07 04:15:00
11:35 PM,-2.2,-9.4,71,30.40,10.0,WNW,13.8,19.6,N/A,,Overcast,300,2014-01-07 04:35:00
11:55 PM,-4.0,-11.2,71,30.41,10.0,NW,15.0,20.7,N/A,,Overcast,310,2014-01-07 04:55:00